Regional Weather Roundup
Issued by NWS

Home | Current Version | Previous Version | Text Only | Print | Product List | Glossary Off
Versions: 1 2 3 4 5 6 7 8 9 10 11 12 13 14 15 16 17 18 19 20 21 22 23 24 25 26 27 28 29 30 31 32 33 34 35 36 37 38 39 40 41 42 43 44 45 46 47 48 49 50

000
ASUS43 KLSX 110507
RWRMO

WEATHER SUMMARY FOR MISSOURI
NATIONAL WEATHER SERVICE SPRINGFIELD MO
1100 PM CST SAT DEC 10 2016

NOTE: "FAIR" INDICATES FEW OR NO CLOUDS BELOW 12,000 FEET WITH NO
       SIGNIFICANT WEATHER AND/OR OBSTRUCTIONS TO VISIBILITY.
       CURRENT SKY AND/OR WEATHER CONDITIONS ARE NOT AVAILABLE FOR
       CHILLICOTHE AND FARMINGTON.

MOZ001>031-035>038-043-044-053-054-110600-
...NORTHERN AND WESTERN MISSOURI...

CITY           SKY/WX    TMP DP  RH WIND       PRES   REMARKS
KANSAS CTY INT CLOUDY    38  19  46 S10       29.98F
KANSAS C DTWN  CLOUDY    40  22  48 VRB7      29.99F
LEE`S SUMMIT   CLOUDY    38  22  52 S13       30.00F WCI  30
ST JOSEPH      CLOUDY    35  20  54 SE10      29.97F WCI  27
CHILLICOTHE      N/A     35  19  52 SE10      30.04F WCI  27
KIRKSVILLE     CLOUDY    32  18  56 SE14      30.07F WCI  22

$$
MOZ066>068-077>081-088>096-101>105-110600-
...SOUTHWEST MISSOURI...

CITY           SKY/WX    TMP DP  RH WIND       PRES   REMARKS
SPRINGFIELD    CLOUDY    37  19  48 S17G25    30.05F WCI  27
JOPLIN         CLOUDY    44  24  45 S15       30.03S
BRANSON        CLOUDY    37  19  48 SE12G18   30.10F WCI  30

$$
MOZ032>034-039>042-045>050-055>058-069>072-110600-
...CENTRAL MISSOURI...

CITY           SKY/WX    TMP DP  RH WIND       PRES   REMARKS
COLUMBIA       CLOUDY    35  16  45 SE14      30.10S WCI  26
JEFFERSON CITY CLOUDY    37  16  42 SE8       30.13F
ROLLA          CLOUDY    34  18  52 S16G23    30.11F WCI  24
SEDALIA        CLOUDY    37  18  46 S9        30.08R
WHITEMAN AFB   CLOUDY    37  20  49 S9        30.04R
WARRENSBURG    CLOUDY    36  21  55 SE12      30.04F WCI  27
OSAGE BEACH    CLOUDY    36  18  48 S9G18     30.11R WCI  29

$$
MOZ051-052-059>065-110600-
...EAST CENTRAL MISSOURI...

CITY           SKY/WX    TMP DP  RH WIND       PRES   REMARKS
ST LOUIS INTL  CLOUDY    36  18  48 S15       30.18F WCI  27
SPIRIT OF STL  CLOUDY    36  17  46 S7        30.18F
ST CHARLES     CLOUDY    35  20  54 SE8       30.21S WCI  29

$$
MOZ072>076-082>087-097>100-106>115-110600-
...SOUTH CENTRAL AND SOUTHEAST MISSOURI...

CITY           SKY/WX    TMP DP  RH WIND       PRES   REMARKS
CAPE GIRARDEAU CLOUDY    36  21  54 S8        30.30F WCI  30
FARMINGTON     CLOUDY    33  19  56 S15       30.21F WCI  23
POPLAR BLUFF   CLOUDY    37  24  59 SE7       30.29F
WEST PLAINS    CLOUDY    34  22  61 S13G20    30.18F WCI  25

$$


USA.gov is the U.S. government's official web portal to all federal, state and local government web resources and services.